[[{"header":{"parameterUnit":"m.s-1","parameterCategory":1,"la1":30.2991,"la2":30.254,"lo1":-89.0895,"lo2":-89.0444,"dy":0.0017,"dx":0.0017,"nx":28,"ny":28,"refTime":"2024-09-27T09:00:00:Z","depth":0,"parameterNumber":2,"parameterNumberName":"U-component_of_WINDS"},"data":[0,0,0,0,0,0,0,0,0,0,0,0,0,0,0,0,0,0,0,0,0,0,0,0,0,0,0,0,0,0,0,0,0,0,0,0,0,0,0,0,0,0,0,0,0,0,0,0,0,0,0,0,0,0,0,0,0,0,7.1224,7.1227,0,7.1481,7.1484,7.1487,7.1424,7.1419,7.1414,7.141,7.1675,7.1687,7.1698,0,0,0,0,0,0,0,0,0,0,0,0,0,7.068,7.0691,7.1224,7.1227,7.1231,7.148,7.1484,7.1488,7.1425,7.1419,7.1413,7.1407,7.1671,7.1685,7.1699,0,0,0,0,0,0,0,0,0,0,0,0,0,7.0925,7.0694,7.1224,7.123,7.1233,7.148,7.1484,7.1488,7.1427,7.1419,7.1412,7.1405,7.1667,7.1684,7.1701,7.1959,0,0,7.1755,7.1762,0,0,0,0,0,0,0,0,7.0911,7.0945,7.1225,7.123,7.1233,7.1413,7.139,7.1646,7.1428,7.1353,7.141,7.1401,7.1594,7.1617,7.1682,7.1971,7.1983,7.1756,7.1767,7.1774,7.1779,0,0,0,0,0,0,0,7.0894,7.0934,7.1326,7.123,7.1235,7.122,7.1246,7.1438,7.1512,7.1359,7.1355,7.1386,7.1595,7.1665,7.1688,7.1987,7.1756,7.1771,7.1782,7.1789,7.2497,7.2505,0,0,0,0,0,0,7.0874,7.092,7.1318,7.1333,7.1051,7.1235,7.1265,7.1363,7.151,7.1525,7.1392,7.1382,7.1639,7.1667,7.1697,7.2006,7.1774,7.1791,7.1801,7.2489,7.2499,7.2508,0,0,0,0,0,0,7.0862,7.091,7.1307,7.1126,7.1175,7.1253,7.1363,7.1372,7.1442,7.1535,7.1548,7.145,7.1634,7.1672,7.1893,7.2014,7.1799,7.1815,7.2479,7.2492,7.2504,7.2627,0,0,0,0,0,0,7.0847,7.0906,7.1005,7.1128,7.1185,7.15,7.1371,7.1382,7.1472,7.1461,7.1593,7.1608,7.1631,7.1867,7.1911,7.2034,7.1828,7.2469,7.2485,7.25,7.2613,7.2642,7.2668,0,0,0,0,0,7.0828,7.1031,7.101,7.1059,7.131,7.1507,7.1539,7.1561,7.1482,7.1582,7.1641,7.1604,7.1994,7.1891,7.1939,7.207,7.2461,7.2481,7.2499,7.26,7.2636,7.2667,0,0,0,0,0,0,7.0921,7.1047,7.1026,7.1275,7.138,7.1496,7.1622,7.1599,7.173,7.1715,7.1738,7.1768,7.1993,7.2054,7.1936,7.2325,7.2216,7.2246,7.2277,7.2312,7.2339,7.2319,7.1843,0,0,0,0,0,7.097,7.1119,7.1221,7.1431,7.1485,7.1545,7.1631,7.1639,7.175,7.1794,7.187,7.198,7.2126,7.2223,7.2364,7.2622,7.2648,7.2735,7.2763,7.2785,7.2809,7.2947,7.2986,7.2569,7.2569,7.2569,0,0,7.1074,7.1161,7.1254,7.1452,7.1535,7.1688,7.1583,7.175,7.1864,7.182,7.2032,7.2092,7.2216,7.2455,7.2565,7.2513,7.293,7.2809,7.2825,7.2838,7.297,7.301,7.3045,7.2582,7.258,7.2578,0,0,7.134,7.1422,7.1604,7.1689,7.1815,7.1853,7.1897,7.2016,7.2053,7.2267,7.2236,7.2372,7.2626,7.2714,7.2792,7.309,7.3059,7.3136,7.3279,7.3413,7.3446,7.3475,7.3579,7.3616,7.316,7.316,7.3161,0,7.1453,7.1682,7.1701,7.1871,7.1958,7.1924,7.2107,7.2189,7.2355,7.2416,7.2356,7.2671,7.2752,7.3011,7.3083,7.3148,7.3198,7.312,7.3439,7.3469,7.3496,7.3595,7.3635,7.3169,7.3168,7.3167,7.3166,0,7.1814,7.1973,7.2105,7.2264,7.2367,7.2543,7.2588,7.2689,7.2688,7.2732,7.2949,7.3045,7.3202,7.3265,7.3266,7.3524,7.3487,7.3433,7.3324,7.3544,7.3637,7.3676,7.318,7.3177,7.3175,7.3173,0,0,7.2146,7.2312,7.236,7.243,7.2566,7.269,7.2864,7.3017,7.3102,7.3218,7.3363,7.3578,7.3528,7.3617,7.3627,7.3746,7.3972,7.3677,7.368,7.3726,7.4258,7.4296,7.434,7.3953,7.396,7.3966,7.4247,0,7.2423,7.2728,7.2749,7.3025,7.3171,7.314,7.3291,7.3391,7.3437,7.3567,7.3618,7.3769,7.3693,7.3746,7.3861,7.392,7.4079,7.39,7.4087,7.4094,7.4055,7.4389,7.4431,7.4691,7.4284,7.429,7.4295,0,7.2786,7.291,7.32,7.3312,7.3375,7.351,7.3651,7.3777,7.3889,7.3914,7.4012,7.4005,7.4183,7.4068,7.4313,7.4191,7.4269,7.4309,7.4319,7.4336,7.4206,7.4412,7.4775,7.4812,7.4353,7.4348,7.4344,0,7.2996,7.3236,7.344,7.3502,7.3639,7.3734,7.3796,7.39,7.399,7.4114,7.4172,7.4315,7.4394,7.4504,7.4536,7.445,7.4779,7.4668,7.4804,7.4803,7.4873,7.4868,7.525,7.4927,7.4927,7.4926,7.4925,0,7.3302,7.3479,7.3535,7.3661,7.3858,7.3881,7.4076,7.4132,7.4225,7.436,7.4343,7.447,7.4506,7.4639,7.4666,7.4862,7.4899,7.4923,7.4927,7.4923,7.492,7.4973,7.4955,7.4936,7.4934,7.4932,7.493,0,7.3569,7.3614,7.3833,7.3944,7.3976,7.4117,7.4212,7.4332,7.4374,7.4545,7.4587,7.4654,7.481,7.4853,7.5042,7.5059,7.5289,7.5279,7.5251,7.525,7.5382,7.5368,7.5811,7.5868,7.551,7.5514,7.5516,0,7.376,7.3896,7.402,7.4109,7.4174,7.4317,7.4408,7.4435,7.4531,7.4667,7.477,7.4923,7.5047,7.5298,7.5363,7.5506,7.5497,7.5642,7.5519,7.5509,7.5496,7.5486,7.5499,7.5665,7.5669,7.5672,7.5674,0,7.4093,7.4108,7.4239,7.4378,7.4487,7.4598,7.4704,7.4778,7.482,7.4928,7.5086,7.5182,7.5372,7.5524,7.5668,7.5731,7.571,7.5713,7.5751,7.5747,7.5724,7.5735,7.5312,7.5702,7.57,7.5698,7.5696,7.5695,7.4327,7.4444,7.455,7.4696,7.4778,7.4878,7.4994,7.5051,7.5183,7.5339,7.5347,7.5518,7.5624,7.5815,7.5886,7.602,7.5977,7.6034,7.6048,7.606,7.607,7.5705,7.6047,7.6046,7.6046,7.6045,7.6045,0,7.4656,7.4722,7.4856,7.5004,7.5119,7.5088,7.5203,7.5301,7.5451,7.5552,7.5673,7.5854,7.6001,7.6077,7.6223,7.6315,7.6309,7.6352,7.6344,7.6359,7.6102,7.6052,7.6355,7.6354,7.6354,7.6354,7.6354,7.6354,7.4841,7.5038,7.5065,7.5301,7.5366,7.5532,7.5601,7.5692,7.5771,7.5973,7.6094,7.6143,7.6233,7.6385,7.6517,7.6536,7.6589,7.6638,7.6651,7.6409,7.6377,7.6347,7.63,7.665,7.665,7.6896,7.6898,7.69]},{"header":{"parameterUnit":"m.s-1","parameterCategory":1,"la1":30.2991,"la2":30.254,"lo1":-89.0895,"lo2":-89.0444,"dy":0.0017,"dx":0.0017,"nx":28,"ny":28,"refTime":"2024-09-27T09:00:00:Z","depth":0,"parameterNumber":3,"parameterNumberName":"V-component_of_WINDS"},"data":[0,0,0,0,0,0,0,0,0,0,0,0,0,0,0,0,0,0,0,0,0,0,0,0,0,0,0,0,0,0,0,0,0,0,0,0,0,0,0,0,0,0,0,0,0,0,0,0,0,0,0,0,0,0,0,0,0,0,1.2153,1.2153,0,1.2178,1.2178,1.2178,1.2186,1.2186,1.2186,1.2186,1.2211,1.2212,1.2212,0,0,0,0,0,0,0,0,0,0,0,0,0,1.2111,1.2112,1.2153,1.2153,1.2154,1.2178,1.2178,1.2179,1.2186,1.2186,1.2186,1.2186,1.2211,1.2211,1.2212,0,0,0,0,0,0,0,0,0,0,0,0,0,1.2132,1.2112,1.2153,1.2161,1.2162,1.2178,1.2178,1.2179,1.2186,1.2186,1.2186,1.2186,1.221,1.2211,1.2212,1.2223,0,0,1.2216,1.2216,0,0,0,0,0,0,0,0,1.2131,1.2134,1.2159,1.216,1.2161,1.2179,1.2172,1.2193,1.2187,1.2177,1.2186,1.2186,1.22,1.2202,1.2207,1.2224,1.2225,1.2216,1.2217,1.2217,1.2218,0,0,0,0,0,0,0,1.2129,1.2133,1.2163,1.216,1.2161,1.2162,1.2165,1.2176,1.2189,1.2178,1.2178,1.2181,1.2201,1.2206,1.2208,1.2225,1.2216,1.2217,1.2218,1.2218,1.225,1.2251,0,0,0,0,0,0,1.2127,1.2131,1.2162,1.2164,1.2145,1.2163,1.2166,1.2173,1.2189,1.2191,1.2181,1.2182,1.2204,1.2206,1.2209,1.2221,1.2217,1.2218,1.2219,1.225,1.2251,1.2251,0,0,0,0,0,0,1.2126,1.213,1.2161,1.2148,1.2152,1.2164,1.2172,1.2174,1.2179,1.2192,1.2194,1.2185,1.2204,1.2207,1.2219,1.2222,1.2219,1.222,1.225,1.225,1.2251,1.2247,0,0,0,0,0,0,1.2125,1.2129,1.2134,1.2148,1.2153,1.2172,1.2172,1.2175,1.2181,1.2182,1.2195,1.2198,1.2204,1.2217,1.222,1.2224,1.2221,1.225,1.225,1.2251,1.2247,1.2247,1.2247,0,0,0,0,0,1.2123,1.2132,1.2134,1.2138,1.2158,1.2172,1.2174,1.2182,1.2182,1.2186,1.2194,1.2197,1.2221,1.2218,1.2222,1.2226,1.225,1.225,1.225,1.2247,1.2247,1.2247,0,0,0,0,0,0,1.2118,1.2134,1.2136,1.215,1.2159,1.2173,1.2179,1.2182,1.2192,1.2192,1.2201,1.2204,1.2215,1.2222,1.2218,1.2236,1.2236,1.2237,1.2231,1.2232,1.2232,1.223,1.2222,0,0,0,0,0,1.2118,1.2128,1.2141,1.2152,1.2156,1.2167,1.2173,1.2178,1.2188,1.2192,1.2201,1.221,1.222,1.2226,1.2236,1.2247,1.225,1.2252,1.2252,1.2252,1.2253,1.2259,1.2259,1.2252,1.2252,1.2252,0,0,1.2119,1.2129,1.2135,1.2151,1.2159,1.2168,1.217,1.218,1.2187,1.2194,1.2205,1.2212,1.2223,1.2234,1.224,1.224,1.2255,1.2252,1.2252,1.2253,1.2259,1.226,1.226,1.2252,1.2252,1.2252,0,0,1.2126,1.2134,1.2144,1.2152,1.2163,1.217,1.2172,1.2185,1.219,1.2202,1.2206,1.2214,1.2231,1.2238,1.2244,1.2252,1.2255,1.2255,1.2256,1.2262,1.2262,1.2263,1.2265,1.2266,1.2256,1.2256,1.2256,0,1.2125,1.214,1.2148,1.2158,1.2164,1.217,1.2179,1.2186,1.2201,1.2205,1.2205,1.2225,1.2233,1.2246,1.2248,1.2253,1.2255,1.2254,1.2262,1.2262,1.2263,1.2265,1.2266,1.2256,1.2256,1.2256,1.2256,0,1.2139,1.2149,1.2155,1.2169,1.2176,1.2185,1.2194,1.22,1.2204,1.221,1.2222,1.2231,1.2242,1.2246,1.225,1.2259,1.2259,1.226,1.226,1.2263,1.2266,1.2267,1.2255,1.2255,1.2255,1.2255,0,0,1.2144,1.2161,1.2163,1.2169,1.2182,1.219,1.2198,1.2209,1.2214,1.2224,1.2231,1.2244,1.2245,1.2252,1.2257,1.2262,1.2266,1.2262,1.2263,1.2263,1.2276,1.2276,1.2277,1.2268,1.2269,1.2269,1.2275,0,1.2152,1.2169,1.2176,1.2189,1.2198,1.2203,1.2211,1.2219,1.2225,1.2233,1.2239,1.2248,1.2249,1.2253,1.2258,1.2265,1.2269,1.2264,1.2275,1.2275,1.2272,1.2278,1.2277,1.2283,1.2276,1.2277,1.2277,0,1.2164,1.2174,1.2188,1.2199,1.2203,1.221,1.222,1.2227,1.2237,1.224,1.2247,1.2251,1.226,1.2259,1.2271,1.2268,1.2272,1.2276,1.2276,1.2278,1.2277,1.2279,1.2285,1.2286,1.2278,1.2278,1.2278,0,1.2166,1.2182,1.2193,1.2197,1.2211,1.2215,1.2221,1.223,1.2235,1.2244,1.2248,1.2257,1.2262,1.2269,1.2275,1.2274,1.2286,1.2286,1.229,1.2289,1.2292,1.2292,1.2299,1.2295,1.2295,1.2295,1.2295,0,1.2175,1.2183,1.2193,1.22,1.2209,1.2216,1.2225,1.2231,1.2239,1.2246,1.225,1.2257,1.2265,1.2272,1.2277,1.2286,1.2288,1.2291,1.2292,1.2291,1.2291,1.2294,1.2294,1.2295,1.2295,1.2295,1.2295,0,1.2179,1.2186,1.2198,1.2209,1.2212,1.2218,1.2227,1.2233,1.2239,1.2248,1.225,1.2259,1.2267,1.2274,1.2286,1.2289,1.2298,1.23,1.2295,1.2296,1.2299,1.2298,1.2309,1.231,1.2305,1.2305,1.2305,0,1.2184,1.2191,1.2202,1.2207,1.2213,1.2221,1.2227,1.2233,1.2239,1.2249,1.2254,1.2263,1.2271,1.2284,1.2291,1.23,1.2301,1.2304,1.2303,1.2301,1.2301,1.2301,1.2301,1.2304,1.2304,1.2304,1.2304,0,1.2192,1.2195,1.2203,1.2213,1.2219,1.2227,1.2235,1.2238,1.2246,1.2252,1.2261,1.2267,1.2278,1.2287,1.2296,1.2301,1.2304,1.2305,1.2306,1.2305,1.2302,1.2303,1.2296,1.2305,1.2305,1.2305,1.2305,1.2305,1.2197,1.2203,1.2211,1.222,1.2226,1.2233,1.2239,1.2245,1.2253,1.2263,1.2266,1.2275,1.2283,1.2295,1.23,1.2307,1.2307,1.2309,1.2309,1.231,1.2309,1.23,1.2308,1.2308,1.2308,1.2308,1.2308,0,1.2205,1.2211,1.2219,1.2229,1.2236,1.2237,1.2246,1.2251,1.2259,1.2266,1.2273,1.2283,1.2291,1.2298,1.2307,1.231,1.2312,1.2312,1.2312,1.2313,1.2309,1.2307,1.2311,1.2311,1.2311,1.2311,1.2311,1.2311,1.221,1.222,1.2224,1.2236,1.2242,1.2251,1.2255,1.2261,1.2267,1.2277,1.2284,1.2289,1.2295,1.2304,1.2311,1.2313,1.2316,1.2316,1.2318,1.2314,1.2314,1.2313,1.2312,1.2317,1.2317,1.2322,1.2322,1.2322]}]]